Overview Statistics Trail Chart Weather Telemetry Raw packets
 

This is the latest recevied weather packets stored in our database for station/object MB7UKB-10. If no packets are shown the sender has not sent any weather packets the latest 10 day(s).

<< 1 2 3 4 >>
Time Temp. Humidity Pressure Rain* Wind** Luminosity Snow
1788713438 23.89° C 49% 1018 hPa 0 mm - - -
1788711639 23.89° C 45% 1018.4 hPa 0 mm - - -
1788709839 25° C 42% 1018.3 hPa 0 mm - - -
1788708038 25.56° C 38% 1018.6 hPa 0 mm - - -
1788706238 25.56° C 36% 1018.4 hPa 0 mm - - -
1788704438 27.22° C 34% 1019.1 hPa 0 mm - - -
1788702638 26.67° C 33% 1019.2 hPa 0 mm - - -
1788700838 27.22° C 33% 1019.6 hPa 0 mm - - -
1788699038 26.67° C 33% 1020 hPa 0 mm - - -
1788697238 25.56° C 38% 1020.4 hPa 0 mm - - -
1788695438 25.56° C 39% 1020.6 hPa 0 mm - - -
1788693639 25.56° C 39% 1020.5 hPa 0 mm - - -
1788691838 24.44° C 46% 1021 hPa 0 mm - - -
1788690038 23.89° C 50% 1021.2 hPa 0 mm - - -
1788688238 22.22° C 56% 1021.6 hPa 0 mm - - -
1788686438 21.11° C 60% 1021.9 hPa 0 mm - - -
1788684639 20.56° C 62% 1022.1 hPa 0 mm - - -
1788682838 18.89° C 67% 1021.9 hPa 0 mm - - -
1788681039 18.33° C 70% 1022.3 hPa 0 mm - - -
1788679239 16.67° C 73% 1022.4 hPa 0 mm - - -
1788677438 16.11° C 74% 1022.6 hPa 0 mm - - -
1788675639 15° C 77% 1022.9 hPa 0 mm - - -
1788672038 14.44° C 80% 1023.2 hPa 0 mm - - -
1788668439 13.89° C 80% 1023.5 hPa 0 mm - - -
1788666638 14.44° C 79% 1023.6 hPa 0 mm - - -

* Rain latest hour (hover to see other rain measurements)
** Current wind speed in m/s (hover to see current wind gust speed)